Weather History for LICZ - April, 2013

Change the Weather History Date:

Sunday, April 14, 2013

  Actual Average Record
Temperature  
Mean Temperature 64 °F -  
Max Temperature 77 °F 73 °F 77 °F (2013)
Min Temperature 50 °F 50 °F 39 °F (1997)
Degree Days  
Heating Degree Days 2    
Growing Degree Days 14 (Base 50)    
Moisture  
Dew Point 51 °F    
Average Humidity 69    
Maximum Humidity 100    
Minimum Humidity 19    
Precipitation  
Precipitation 0.00 in 0.04 in - ()
Sea Level Pressure  
Sea Level Pressure 30.24 in    
Wind  
Wind Speed 5 mph ()    
Max Wind Speed 16 mph    
Max Gust Speed -    
Visibility 6.2 miles    
Events      
Averages and records for this station are not official NWS values.
T = Trace of Precipitation, MM = Missing Value Source: Averaged Metar Reports

Daily Weather History Graph

Daily Weather History Graph

Search for Another Location

Airport or City:

Trip Planner

Search our weather history database for the weather conditions in past years. The results will help you decide how hot, cold, wet, or windy it might be!

Date:

Astronomy

Apr. 14, 2013 Rise Set
Actual Time 6:27 AM CEST 7:34 PM CEST
Civil Twilight 6:00 AM CEST 8:01 PM CEST
Nautical Twilight 5:28 AM CEST 8:33 PM CEST
Astronomical Twilight 4:54 AM CEST 9:07 PM CEST
Moon 8:54 AM CEST (4/14) 11:30 PM CEST (4/14)
Length of Visible Light 14h 01m
Length of Day
13h 07m
Waxing Crescent, 15% of the Moon is Illuminated
Apr 14
Waxing Crescent
Apr 18
First Quarter
Apr 25
Full
May 2
Last Quarter
May 10
New

Hourly Weather History & Observations

Time (CEST) Temp. Dew Point Humidity Pressure Visibility Wind Dir Wind Speed Gust Speed Precip Events Conditions
12:55 AM 59.0 °F 59.0 °F 100% 30.18 in 6.2 mi SE 1.2 mph - N/A   Scattered Clouds
1:55 AM 57.2 °F 57.2 °F 100% 30.18 in 6.2 mi NW 4.6 mph - N/A   Scattered Clouds
2:00 AM 58 °F 58 °F 98% 30.21 in 6 mi NW 4.6 mph - -   Partly Cloudy
3:55 AM 57.2 °F 57.2 °F 100% 30.21 in 6.2 mi West 4.6 mph - N/A   Scattered Clouds
4:55 AM 51.8 °F 51.8 °F 100% 30.21 in 6.2 mi West 3.5 mph - N/A   Scattered Clouds
5:00 AM 53 °F 53 °F 98% 30.24 in 6 mi West 3.5 mph - -   Partly Cloudy
5:55 AM 50.0 °F 50.0 °F 100% 30.24 in 4.3 mi WNW 6.9 mph - N/A   Partly Cloudy
6:55 AM 50.0 °F 50.0 °F 100% 30.24 in 5.0 mi WNW 6.9 mph - N/A   Unknown
8:55 AM 59.0 °F 55.4 °F 88% 30.24 in - WNW 3.5 mph - N/A   Clear
9:55 AM 62.6 °F 46.4 °F 55% 30.27 in - NW 3.5 mph - N/A   Clear
10:55 AM 71.6 °F 50.0 °F 46% 30.27 in - NNE 2.3 mph - N/A   Clear
11:00 AM 72 °F 50 °F 34% 30.28 in 6 mi NNE 2.3 mph - -  
11:55 AM 75.2 °F 42.8 °F 31% 30.27 in - East 10.4 mph - N/A   Clear
12:55 PM 75.2 °F 41.0 °F 29% 30.27 in - East 10.4 mph - N/A   Clear
2:00 PM 77 °F 43 °F 19% 30.26 in 6 mi East 9.2 mph - -  
2:55 PM 77.0 °F 41.0 °F 28% 30.24 in - East 9.2 mph - N/A   Clear
3:55 PM 75.2 °F 42.8 °F 31% 30.24 in - East 11.5 mph - N/A   Clear
4:55 PM 75.2 °F 42.8 °F 31% 30.21 in - ESE 16.1 mph - N/A   Clear
5:00 PM 75 °F 43 °F 21% 30.23 in 6 mi ESE 16.1 mph - -  
5:55 PM 73.4 °F 46.4 °F 38% 30.24 in - ESE 11.5 mph - N/A   Clear
6:55 PM 68.0 °F 48.2 °F 49% 30.24 in - ESE 8.1 mph - N/A   Clear
7:55 PM 64.4 °F 57.2 °F 77% 30.24 in - East 4.6 mph - N/A   Clear
8:00 PM 64 °F 56 °F 69% 30.24 in 6 mi East 4.6 mph - -  
8:55 PM 60.8 °F 57.2 °F 88% 30.24 in - East 4.6 mph - N/A   Clear
9:55 PM 59.0 °F 59.0 °F 100% 30.27 in - NE 3.5 mph - N/A   Clear
10:55 PM 53.6 °F 53.6 °F 100% 30.27 in - West 5.8 mph - N/A   Clear
11:00 PM 54 °F 54 °F 98% 30.28 in 11 mi West 5.8 mph - -  
11:55 PM 55.4 °F 55.4 °F 100% 30.27 in - NW 6.9 mph - N/A   Clear